This is the latest recevied weather packets stored in our database for station/object SV2RIM-2. If no packets are shown the sender has not sent any weather packets the latest 1 day(s).
| Time | Temp. | Humidity | Pressure | Rain* | Wind** | Luminosity | Snow |
|---|---|---|---|---|---|---|---|
| 1778032219 | 11.11° C | 59% | 1014.8 hPa | - | 2.24 m/s, 316° | - | - |
| 1778031619 | 11.67° C | 58% | 1014.9 hPa | - | 2.68 m/s, 330° | - | - |
| 1778031019 | 11.67° C | 58% | 1014.8 hPa | - | 2.24 m/s, 330° | - | - |
| 1778030419 | 11.67° C | 58% | 1014.9 hPa | - | 2.24 m/s, 332° | - | - |
| 1778029819 | 11.67° C | 57% | 1014.9 hPa | - | 1.79 m/s, 318° | - | - |
| 1778029219 | 12.22° C | 57% | 1014.9 hPa | - | 1.79 m/s, 312° | - | - |
| 1778028619 | 12.22° C | 56% | 1014.8 hPa | - | 2.24 m/s, 353° | - | - |
| 1778028019 | 12.22° C | 56% | 1014.8 hPa | - | 2.24 m/s, 335° | - | - |
| 1778027419 | 12.78° C | 55% | 1014.8 hPa | - | 1.79 m/s, 323° | - | - |
| 1778026819 | 12.78° C | 55% | 1014.8 hPa | - | 1.79 m/s, 342° | - | - |
| 1778026219 | 12.78° C | 54% | 1014.8 hPa | - | 1.34 m/s, 311° | - | - |
| 1778025619 | 12.78° C | 54% | 1014.9 hPa | - | 1.34 m/s, 326° | - | - |
| 1778025019 | 12.78° C | 54% | 1015 hPa | - | 1.34 m/s, 311° | - | - |
| 1778024419 | 12.78° C | 54% | 1015 hPa | - | 1.79 m/s, 304° | - | - |
| 1778023819 | 12.78° C | 53% | 1015 hPa | - | 1.79 m/s, 312° | - | - |
| 1778023219 | 12.78° C | 53% | 1015 hPa | - | 2.24 m/s, 333° | - | - |
| 1778022619 | 12.78° C | 52% | 1015 hPa | - | 1.79 m/s, 336° | - | - |
| 1778022019 | 12.78° C | 52% | 1015 hPa | - | 2.24 m/s, 316° | - | - |
| 1778021419 | 12.22° C | 52% | 1015 hPa | - | 2.24 m/s, 342° | - | - |
| 1778020819 | 12.22° C | 52% | 1015 hPa | - | 2.68 m/s, 341° | - | - |
| 1778020219 | 12.22° C | 52% | 1015 hPa | - | 2.68 m/s, 341° | - | - |
| 1778019619 | 12.78° C | 51% | 1015 hPa | - | 2.24 m/s, 354° | - | - |
| 1778019019 | 13.33° C | 49% | 1015 hPa | - | 1.79 m/s, 329° | - | - |
| 1778018419 | 12.78° C | 50% | 1014.9 hPa | - | 1.79 m/s, 328° | - | - |
| 1778017819 | 13.33° C | 48% | 1014.9 hPa | - | 1.79 m/s, 325° | - | - |
* Rain since midnight (hover to see other rain measurements)
** Current wind speed in m/s (hover to see current wind gust speed)